TimeEDT,TemperatureF,Dew PointF,Humidity,Sea Level PressureIn,VisibilityMPH,Wind Direction,Wind SpeedMPH,Gust SpeedMPH,PrecipitationIn,Events,Conditions,WindDirDegrees,DateUTC
12:15 AM,62.6,55.4,77,30.32,8.0,NNE,9.2,-,0.00,,Clear,20,2014-04-18 04:15:00
12:35 AM,62.6,55.4,77,30.32,8.0,NNE,10.4,17.3,0.00,,Clear,20,2014-04-18 04:35:00
12:55 AM,62.6,55.4,77,30.30,8.0,NNE,9.2,17.3,0.00,,Clear,30,2014-04-18 04:55:00
1:15 AM,62.6,55.4,77,30.31,8.0,NNE,11.5,16.1,0.00,,Clear,30,2014-04-18 05:15:00
1:35 AM,62.6,55.4,77,30.31,8.0,NNE,10.4,17.3,0.00,,Clear,30,2014-04-18 05:35:00
1:55 AM,62.6,55.4,77,30.30,8.0,NNE,9.2,17.3,0.00,,Clear,30,2014-04-18 05:55:00
2:15 AM,62.6,55.4,77,30.30,9.0,NNE,8.1,17.3,0.00,,Scattered Clouds,20,2014-04-18 06:15:00
2:35 AM,62.6,55.4,77,30.28,8.0,NNE,11.5,17.3,0.00,,Scattered Clouds,20,2014-04-18 06:35:00
2:55 AM,62.6,57.2,82,30.27,7.0,NNE,12.7,18.4,0.00,,Scattered Clouds,20,2014-04-18 06:55:00
3:15 AM,62.6,57.2,82,30.26,7.0,NNE,12.7,16.1,0.00,,Mostly Cloudy,20,2014-04-18 07:15:00
3:35 AM,62.6,57.2,82,30.25,7.0,NNE,12.7,20.7,0.00,,Mostly Cloudy,30,2014-04-18 07:35:00
3:55 AM,62.6,57.2,82,30.26,7.0,NNE,11.5,19.6,0.00,,Overcast,30,2014-04-18 07:55:00
4:15 AM,60.8,57.2,88,30.25,7.0,North,8.1,16.1,0.00,,Mostly Cloudy,10,2014-04-18 08:15:00
4:35 AM,60.8,57.2,88,30.25,6.0,NNE,13.8,19.6,0.00,,Overcast,30,2014-04-18 08:35:00
4:55 AM,60.8,57.2,88,30.24,7.0,NNE,10.4,20.7,0.00,,Mostly Cloudy,20,2014-04-18 08:55:00
5:15 AM,60.8,57.2,88,30.24,6.0,NNE,13.8,23.0,0.00,,Overcast,20,2014-04-18 09:15:00
6:50 AM,60.8,59.0,94,30.24,6.0,NNE,15.0,21.9,N/A,,Overcast,30,2014-04-18 10:50:00
7:50 AM,60.8,59.0,94,30.24,5.0,NNE,18.4,28.8,N/A,,Overcast,30,2014-04-18 11:50:00
8:50 AM,60.8,55.4,82,30.25,6.0,NNE,13.8,23.0,N/A,,Overcast,20,2014-04-18 12:50:00
9:50 AM,60.8,53.6,77,30.26,5.0,NNE,11.5,23.0,N/A,,Overcast,30,2014-04-18 13:50:00
10:50 AM,59.0,55.4,88,30.27,5.0,NNE,13.8,23.0,N/A,Rain,Light Rain,20,2014-04-18 14:50:00
11:50 AM,60.8,55.4,82,30.24,6.0,NNE,19.6,26.5,N/A,,Haze,20,2014-04-18 15:50:00
12:50 PM,60.8,55.4,82,30.21,4.0,NNE,10.4,23.0,N/A,Rain,Light Rain,30,2014-04-18 16:50:00
1:50 PM,59.0,57.2,94,30.16,3.0,NNE,12.7,23.0,N/A,,Overcast,30,2014-04-18 17:50:00
2:50 PM,59.0,57.2,94,30.13,3.0,NNE,17.3,25.3,N/A,Rain,Rain,20,2014-04-18 18:50:00
3:15 PM,59.0,57.2,94,30.14,1.5,NNE,16.1,24.2,N/A,Rain,Heavy Rain,20,2014-04-18 19:15:00
3:50 PM,57.2,57.2,100,30.09,2.0,NNE,18.4,26.5,N/A,Rain,Rain,20,2014-04-18 19:50:00
4:50 PM,57.2,57.2,100,30.07,1.2,NNE,15.0,24.2,N/A,Rain,Heavy Rain,20,2014-04-18 20:50:00
5:50 PM,59.0,57.2,94,30.04,1.0,NNE,18.4,34.5,N/A,Rain,Heavy Rain,20,2014-04-18 21:50:00
6:50 PM,59.0,59.0,100,30.03,0.8,NNE,16.1,25.3,N/A,Rain,Heavy Rain,20,2014-04-18 22:50:00
7:30 PM,59.0,59.0,100,30.01,2.5,North,10.4,23.0,N/A,Rain,Heavy Rain,10,2014-04-18 23:30:00
8:15 PM,60.8,59.0,94,30.02,2.5,North,16.1,24.2,0.13,Rain,Heavy Rain,360,2014-04-19 00:15:00
8:35 PM,60.8,59.0,94,30.03,1.8,North,11.5,28.8,0.32,Rain-Thunderstorm,Heavy Rain,360,2014-04-19 00:35:00
8:55 PM,60.8,59.0,94,30.04,3.0,NNW,13.8,18.4,0.53,Rain,Heavy Rain,340,2014-04-19 00:55:00
9:15 PM,60.8,59.0,94,30.02,2.5,North,11.5,-,0.05,Rain,Rain,10,2014-04-19 01:15:00
9:35 PM,60.8,59.0,94,30.01,6.0,North,11.5,18.4,0.06,,Light Drizzle,10,2014-04-19 01:35:00
9:55 PM,60.8,59.0,94,30.00,6.0,North,13.8,23.0,0.07,Rain,Light Rain,10,2014-04-19 01:55:00
10:15 PM,60.8,59.0,94,29.99,6.0,NNE,11.5,26.5,0.00,,Drizzle,20,2014-04-19 02:15:00
10:35 PM,60.8,59.0,94,29.97,7.0,NNE,13.8,21.9,0.00,,Overcast,30,2014-04-19 02:35:00
10:55 PM,60.8,59.0,94,29.97,7.0,NNE,12.7,25.3,0.00,Rain,Light Rain,20,2014-04-19 02:55:00
11:15 PM,60.8,60.8,100,29.97,5.0,NNE,12.7,20.7,0.00,,Light Drizzle,30,2014-04-19 03:15:00
11:35 PM,60.8,60.8,100,29.98,4.0,NNE,13.8,21.9,0.00,,Light Drizzle,30,2014-04-19 03:35:00
11:55 PM,60.8,60.8,100,29.98,2.5,NNE,10.4,20.7,0.05,Rain,Heavy Rain,30,2014-04-19 03:55:00